www.pogodaiklimat.ru

Погода и климат >> Архив погоды >> Канада >> Онтарио >> Сен-Пьер


ПОГОДА в Сен-Пьере

  • Прогноз погоды в Сен-Пьере
  • Монитор погоды в Сен-Пьере

АРХИВ ПОГОДЫ в Сен-Пьере

Время (UTC), дата Ветер
(напр.,м/с)
 
Видим.   Явления Облачность Т
(С)
Тd
(С)
f
(%)
Тe
(С)
Тes
(С)
Комфортность P
(гПа)
Po
(гПа)
Тmin
(С)
Tmax
(С)
R
(мм)
R24
(мм)
S
(см)
21 15.08 З 6
{9}
50 км н/о +18.7 +14.6 77 +19 +19 1016.6 1015.8
00 16.08 З 2
{5}
50 км 1/1 600 м
[Sc diur, vesp]
+14.6 +13.5 93 +14 +14 1018.0 1017.2
03 16.08 С 2
{2}
45 км н/о +13.5 +13.0 97 +13 +13 1019.4 1018.6 0.2
06 16.08 штиль 0
{2}
21 км 10/10 300 м
[]
+14.1 +13.9 99 +14 +14 1019.7 1018.9 +13.4 +20.3
09 16.08 В 5
{7}
100 м туман ?/? +14.3 +14.3 100 +12 +12 1021.3 1020.5 0.2
12 16.08 СВ 3
{5}
900 м туман ?/? +16.1 +16.1 100 +16 +16 1022.1 1021.3
15 16.08 В 5
{7}
35 км {туман} 4/4 300 м
[Cu hum Ci fib]
+19.9 +16.1 79 +22 +27 комфорт 1023.4 1022.6
18 16.08 В 5
{9}
19 км н/о +19.1 +16.1 83 +20 +20 1023.5 1022.7 +12.9 +20.2
21 16.08 ЮВ 4
{8}
35 км 9/6 540 м
[Sc diur, vesp Ci]
+17.5 +13.6 78 +17 +18 1023.2 1022.4
00 17.08 ЮВ 5
{7}
50 км 10/10 600 м
[]
+16.5 +12.8 79 +16 +16 1023.2 1022.4
03 17.08 ЮВ 5
{7}
50 км 10/10 600 м
[]
+15.5 +11.7 78 +14 +14 1023.5 1022.7
06 17.08 В 2
{5}
45 км 10/10 600 м
[]
+15.0 +10.8 76 +15 +15 1023.4 1022.6 +15.0 +19.6
09 17.08 СВ 1
{2}
40 км 4/4 540 м
[Sc Ci fib]
+13.1 +10.5 84 +13 +13 1023.1 1022.3
12 17.08 СВ 4
{5}
50 км 1/1 600 м
[Sc]
+17.6 +11.8 69 +17 +21 1022.7 1021.9
15 17.08 ЮВ 3
{6}
19 км н/о +19.0 +13.4 70 +20 +20 1022.9 1022.1
18 17.08 Ю 4
{6}
40 км 1/1 660 м
[Sc diur, vesp Ci fib]
+18.9 +12.9 68 +20 +27 1022.7 1021.9 +12.8 +19.7
21 17.08 ЮЗ 3
{5}
45 км 3/0
[Ci fib]
+17.8 +11.8 68 +18 +19 1022.7 1021.9
00 18.08 Ю 2
{3}
45 км 1/0
[Ci fib]
+14.2 +12.6 90 +14 +14 1022.5 1021.7
03 18.08 Ю 3
{4}
19 км н/о +13.8 +13.0 95 +13 +13 1022.2 1021.4
06 18.08 Ю 3
{5}
40 км н/о +14.4 +13.3 93 +14 +14 1021.7 1020.9 +13.5 +19.0
09 18.08 штиль 0
{3}
35 км 8/3 480 м
[Sc Ci sp]
+14.2 +13.7 97 +14 +14 1021.8 1021.0
12 18.08 Ю 3
{5}
30 км 10/1 600 м
[Sc Ac As Ci sp]
+17.5 +14.6 83 +17 +20 1021.8 1021.0 0.2
15 18.08 ЮЗ 3
{5}
20 км 9/0
[Ac As Ci sp]
+19.3 +14.3 73 +21 +29 комфорт 1021.1 1020.3
18 18.08 Ю 3
{5}
20 км 9/0
[Ac As Ci sp]
+19.6 +14.2 71 +22 +26 комфорт 1020.8 1020.0 +13.9 +19.9
21 18.08 ЮЗ 3
{5}
30 км слаб. дождь 10/6 480 м
[Cu hum Ac As Ci sp]
+17.3 +14.6 84 +17 +18 1020.2 1019.4 0.0
00 19.08 ЮЗ 3
{4}
40 км {дождь} 10/3 600 м
[Sc Ac As Ci sp]
+16.3 +15.0 92 +16 +16 1020.0 1019.2 0.0
03 19.08 Ю 2
{4}
55 км 10/0
[]
+16.3 +15.5 95 +17 +17 1019.3 1018.5 0.2
06 19.08 Ю 2
{3}
16 км 10/0
[]
+16.1 +15.5 96 +16 +16 1018.5 1017.7 +15.7 +19.9 0.2
09 19.08 ЮЗ 2
{4}
50 км 9/6 330 м
[Sc Ac As]
+15.3 +14.8 97 +15 +15 1019.0 1018.2
12 19.08 ЮЗ 3
{5}
50 км 4/4 360 м
[Sc]
+18.1 +15.2 83 +18 +21 1019.8 1019.0
15 19.08 Ю 3
{4}
50 км 1/1 360 м
[Sc]
+19.5 +14.3 72 +21 +32 комфорт 1019.4 1018.6
18 19.08 Ю 5
{8}
50 км 8/8 300 м
[Sc]
+19.6 +15.0 75 +21 +22 комфорт 1018.6 1017.8 +15.2 +20.2
21 19.08 ЮЗ 5
{8}
50 км 8/8 210 м
[St]
+17.8 +15.8 88 +17 +18 1017.9 1017.1
00 20.08 Ю 4
{6}
50 км н/о +16.6 +15.3 92 +16 +16 1017.1 1016.3
03 20.08 Ю 4
{5}
40 км 10/10 300 м
[]
+17.4 +16.3 93 +17 +17 1016.5 1015.7
06 20.08 Ю 5
{7}
19 км 10/10 300 м
[]
+17.7 +17.1 96 +17 +17 1015.1 1014.3 +16.5 +19.5
09 20.08 Ю 7
{9}
8000 м слаб. дождь 10/10 300 м
[]
+18.0 +17.7 98 +17 +17 1013.4 1012.6 0.2
12 20.08 ЮЗ 10
{13}
10 км в посл. час дождь 9/9 60 м
[Sc]
+18.4 +18.2 99 +18 +18 1012.5 1011.7 5
15 20.08 ЮЗ 9
{15}
800 м туман 10/10 60 м
[St]
+19.5 +19.5 100 +21 +21 комфорт 1011.7 1010.9 0.2
18 20.08 ЮЗ 8
{11}
500 м туман ?/? +19.0 +19.0 100 +20 +20 1011.0 1010.2 +17.7 +19.5 0.0
21 20.08 З 6
{8}
200 м туман ?/? +19.1 +19.1 100 +21 +21 комфорт 1010.5 1009.7
00 21.08 З 5
{8}
7000 м н/о +17.9 +17.9 100 +18 +18 1012.1 1011.3 0
03 21.08 З 8
{12}
17 км н/о +16.8 +15.3 91 +15 +15 1013.3 1012.5
06 21.08 З 6
{9}
18 км н/о +16.8 +15.3 91 +16 +16 1013.3 1012.5 +16.4 +19.7
09 21.08 З 5
{7}
30 км 3/0
[Ci fib]
+16.6 +16.0 96 +16 +16 1014.3 1013.5
12 21.08 З 5
{9}
50 км 5/0
[Ci fib]
+20.4 +16.0 76 +23 +26 комфорт 1015.5 1014.7
15 21.08 З 7
{10}
50 км 3/0
[Ci fib]
+22.5 +17.4 73 +27 +31 душно 1016.1 1015.3
18 21.08 З 7
{11}
50 км 3/0
[Ci fib]
+22.6 +17.3 72 +27 +31 душно 1016.3 1015.5 +16.6 +23.4
21 21.08 З 5
{9}
50 км 4/0
[Ci fib]
+21.1 +17.3 79 +25 +26 комфорт 1016.6 1015.8
00 22.08 З 5
{7}
50 км 8/0
[Ci fib]
+18.1 +17.8 98 +18 +18 1017.7 1016.9
03 22.08 З 5
{8}
11 км н/о +17.6 +17.4 99 +17 +17 1018.1 1017.3 0.2
06 22.08 ЮЗ 2
{3}
4100 м дымка н/о +16.3 +16.3 100 +16 +16 1017.6 1016.8 +16.3 +23.0
09 22.08 Ю 2
{3}
20 км 9/0
[Cs]
+16.6 +16.6 100 +17 +17 1017.0 1016.2 0.2
12 22.08 ЮВ 2
{3}
20 км 9/4 150 м
[St Cs]
+18.4 +18.2 99 +20 +23 1017.4 1016.6
15 22.08 ЮВ 4
{6}
8000 м 10/9 90 м
[Frnb]
+18.3 +17.8 97 +19 +19 1015.8 1015.0
18 22.08 ЮВ 8
{12}
2700 м слаб. дождь 10/10 100 м
[]
+17.9 +17.9 100 +17 +17 1013.3 1012.5 +16.2 +18.6 4

 

Местоположение метеостанции Сен-Пьер (Онтарио, Канада): широта 46.77 долгота -56.16 высота над уровнем моря 24 м.

В архиве по умолчанию представлена погода в Сен-Пьере за последнюю неделю. Архивные данные за месяц целиком и за предыдущие месяцы, начиная с января 2011 года, Вы можете получить, выбрав интересующий диапазон дат из раскрывающегося списка и нажав кнопку "Ввод!".


*Определитесь, кто Вы:
робот инопланетянин человек

Внимание! Время в таблицах - всемирное. Для получения местного времени необходимо прибавить поправку, которая равна -4 ч.

Смотрите также архив погоды в соседних городах и на ближайших метеорологических станциях:

Погода в Сейнт-Лоренс (Ньюфаундленд и Лабрадор, Канада) (62 км)
Погода на Острове Сагона (Ньюфаундленд и Лабрадор, Канада) (73 км)
Погода в Уинтерленде (Ньюфаундленд и Лабрадор, Канада) (76 км)
Погода в Берджео (Ньюфаундленд и Лабрадор, Канада) (145 км)
Погода в Аргентии (Ньюфаундленд и Лабрадор, Канада) (174 км)
Погода в Кейп-Рейсе (Ньюфаундленд и Лабрадор, Канада) (237 км)
Погода в Порт-Окс-Баски (Ньюфаундленд и Лабрадор, Канада) (243 км)
Погода в Баджере (Ньюфаундленд и Лабрадор, Канада) (245 км)
Погода в Терра Нова (Ньюфаундленд и Лабрадор, Канада) (258 км)
Погода в Авр-Сен-Пьере (Квебек, Канада) (259 км)

Пояснения к столбцам:

Ветер - указаны скорость ветра в м/с - средняя за 10 мин, порывы в срок и между сроками (в фигурных скобках) и направление, откуда дует ветер: С - северный, СВ - северо-восточный, В - восточный, ЮВ - юго-восточный, Ю - южный, ЮЗ - юго-западный, З - западный, СЗ - северо-западный.
Видимость - горизонтальная дальность видимости в метрах или километрах. При видимости от 1 до 10 км при отсутствии осадков обычно наблюдается дымка, при ухудшении видимости до 1 км и менее - туман. В сухую погоду видимость может ухудшаться дымом, пылью или мглою.
Явления - указаны атмосферные явления, наблюдавшиеся в срок или в последний час перед сроком; фигурными скобками обозначены явления, наблюдавшиеся между сроками (за 1-3 часа до срока); квадратными скобками обозначены град или гололедные отложения с указанием их диаметра в мм.
Облачность - указаны через наклонную черту общая и нижняя облачность в баллах и высота нижней границы облаков в метрах; квадратными скобками обозначены формы облаков: Ci - перистые, Cs - перисто-слоистые, Cc - перисто-кучевые, Ac - высококучевые, As - высокослоистые, Sc - слоисто-кучевые, Ns - слоисто-дождевые, Cu - кучевые, Cb - кучево-дождевые. Подробнее классификацию облаков см. в Атласе облаков (PDF).
T - Температура воздуха - температура, измеренная на высоте 2 м над землей.
Td - Температура точки росы - температура, при понижении до которой содержащийся в воздухе водяной пар достигнет насыщения.
f - Относительная влажность воздуха - влажноcть воздуха, измеренная на высоте 2 м над землей.
Te - Эффективная температура - температура, которую ощущает одетый по сезону человек в тени. Характеристика душности погоды. При расчете учитывается влияние влажности воздуха и скорости ветра на теплоощущения человека.
Tes - Эффективная температура на солнце - температура, которую ощущает человек, с поправкой на солнечный нагрев. Характеристика знойности погоды. Зависит от высоты солнца над горизонтом, облачности и скорости ветра. Ночью, в пасмурную погоду, а также при ветре 12 м/с и более поправка равна нулю.
P - Атмосферное давление - приведенное к уровню моря атмосферное давление.
Po - Атмосферное давление - измеренное на уровне метеостанции атмосферное давление.
Tmin - Минимальная температура - минимум температуры воздуха на высоте 2 м над землей.
Tmax - Максимальная температура - максимум температуры воздуха на высоте 2 м над землей.
R - Количество осадков - Количество выпавших осадков за период времени, мм. При наведении курсора мыши на число - период времени, за который выпало указанное количество осадков.
R24 - Количество осадков - Количество выпавших осадков за 24 часа, мм.
S - Снежный покров - Высота снежного покрова, см. При наведении курсора мыши на число - состояние снежного покрова и степень покрытия местности в баллах.